Back to catalog

COSMOS 2491 DEB

LostPO
NORAD 44988·DEBRIS·🇷🇺 Russia

Launched Dec 25, 2013 from Plesetsk Cosmodrome

Loading…

Next Passes (next 24 hours)

TLE

StaleSource: Space-Track

Epoch: Feb 15, 2020, 14:26 UTC

1 44988U 13076J   20046.60167366  .00001130  00000-0  73592-2 0  9990
2 44988  82.4556 171.1135 0031839 336.9957  21.3859 12.50018592  4982

Track COSMOS 2491 DEB in real time with AllMySat

Download on the App Store